星链-34964 (STARLINK-34964)

导读

STARLINK-34964是美国SpaceX星链互联网星座的一颗卫星,于2025年8月18日发射升空。作为星链低轨星座的组成单元,它承担着为全球提供高速低延迟互联网服务的任务,主要覆盖郊区、偏远等基础设施匮乏地区,进一步扩充了星链星座的服务覆盖范围与容量。

Basic Information
目录编号:
65239
目录名称:
STARLINK-34964
国际标识:
2025-179E
轨道中心:
EARTH
卫星名称:
星链-34964
卫星全名:
星链-34964 (STARLINK-34964)
卫星状态:
在轨 (已飞行382 天)
发射日期:
2025-08-18 UTC
国别 :
美国 (US)
星等 :
--
Orbit Information
数据来源 国际轨道数据 AOE轨道数据
星历时间 2026-09-03T11:05:57+0800
1天前
查看轨道信息
2026-09-02T23:00:00+0800
1天前
查看轨道信息
半长轴 6843.676km 6843.671km
偏心率 0.0000729 0.0000971
轨道倾角 97.281° 97.283°
近地点辐角 87.225° 96.899°
升交点赤经 285.740° 285.243°
平近点角 272.908° 2.018°
近地点 465.04km 464.869km
远地点 466.038km 466.199km
周期 93.906分钟 93.906分钟
每日圈数 15.334467 15.334481
Detailed Information
固有亮度:
5
最大亮度:
2.5
卫星平台:
Starlink V1.0
覆盖范围:
全球
运营商:
太空探索技术公司
运营商所在国:
美国
制造商(研发单位):
太空探索技术公司
制造商所在国:
美国
使用方式:
暂无
Satellite Introduction
Starlink 计划是 SpaceX 推出的全球卫星互联网项目,通过发射低轨道卫星,为全球尤其是偏远地区提供高速、低延迟的互联网服务。自 2019 年起,Starlink 已部署数千颗卫星,旨在缩小全球数字鸿沟,推动互联网普及。该项目还为军事、航空等行业提供通信支持,带来广泛经济效益。
2D Orbit Map
3D Orbit Map
Orbit Altitude Analysis Chart
Orbit Inclination Analysis Chart
Orbit Comprehensive Analysis Chart
View Comprehensive Chart
Conjunction Data List
Event ID Objects TCA Miss Dist (km) Collision Risk Probability Collision Risk Index (CRI) Action
CDM_260903-165805-209006-523922
2026-09-03T
16:58:19+0000
2.326 km
极远距离
1.589977E-6 低风险 0.39
CDM_260904-072306-523906-541621
2026-09-04T
07:23:19+0000
2.646 km
极远距离
1.584992E-6 低风险 0.39
CDM_260903-045004-783606-523921
2026-09-03T
04:50:29+0000
2.742 km
极远距离
1.47637E-6 低风险 0.38
CDM_260905-130504-779906-523921
2026-09-05T
13:05:37+0000
2.835 km
极远距离
1.436333E-6 低风险 0.38
CDM_260905-082804-783406-523921
2026-09-05T
08:28:34+0000
2.940 km
极远距离
1.359972E-6 低风险 0.38
CDM_260906-065004-605506-523921
2026-09-06T
06:50:32+0000
2.479 km
极远距离
1.35239E-6 低风险 0.38
CDM_260903-025605-357006-523922
2026-09-03T
02:56:17+0000
2.679 km
极远距离
1.042093E-6 低风险 0.35